Hattiesburg, MS

8:35 PM CST on December 16, 2017 (GMT -0600)
Chain Municipal

Weather History for KHBG - March, 2014

Change the Weather History Date:

Thursday, March 20, 2014

  Actual Average Record
Temperature  
Mean Temperature 60 °F 60 °F  
Max Temperature 74 °F 72 °F 87 °F (1982)
Min Temperature 46 °F 48 °F 28 °F (1965)
Degree Days  
Heating Degree Days 5 6  
Month to date heating degree days 190 158  
Since 1 July heating degree days 2113 1836  
Cooling Degree Days 0 1  
Month to date cooling degree days 7 20  
Year to date cooling degree days 24 35  
Growing Degree Days 10 (Base 50)    
Moisture  
Dew Point 43 °F    
Average Humidity 55    
Maximum Humidity 84    
Minimum Humidity 25    
Precipitation  
Precipitation 0.00 in 0.17 in 2.15 in (2002)
Month to date precipitation 3.15 3.58  
Year to date precipitation 13.05 14.71  
Sea Level Pressure  
Sea Level Pressure 30.12 in    
Wind  
Wind Speed 4 mph (North)    
Max Wind Speed 12 mph    
Max Gust Speed 20 mph    
Visibility 10 miles    
Events      
T = Trace of Precipitation, MM = Missing Value Source: NWS Daily Summary

Daily Weather History Graph

Daily Weather History Graph

Search for Another Location

Airport or City:

Trip Planner

Search our weather history database for the weather conditions in past years. The results will help you decide how hot, cold, wet, or windy it might be!

Date:

Astronomy

Mar. 20, 2014 Rise Set
Actual Time 7:00 AM CDT 7:08 PM CDT
Civil Twilight 6:36 AM CDT 7:32 PM CDT
Nautical Twilight 6:08 AM CDT 8:00 PM CDT
Astronomical Twilight 5:39 AM CDT 8:29 PM CDT
Moon 11:11 PM CDT (3/20) 9:21 AM CDT (3/20)
Length of Visible Light 12h 56m
Length of Day
12h 07m
Waning Gibbous, 84% of the Moon is Illuminated
Mar 20
Waning Gibbous
Mar 23
Last Quarter
Mar 30
New
Apr 7
First Quarter
Apr 15
Full

Hourly Weather History & Observations

Time (CDT) Temp. Dew Point Humidity Pressure Visibility Wind Dir Wind Speed Gust Speed Precip Events Conditions
12:53 AM 61.0 °F 55.0 °F 81% 30.10 in 10.0 mi WNW 3.5 mph - N/A   Clear
1:53 AM 57.9 °F 52.0 °F 81% 30.11 in 10.0 mi NNW 5.8 mph - N/A   Clear
2:53 AM 57.9 °F 50.0 °F 75% 30.12 in 10.0 mi NW 6.9 mph - N/A   Overcast
3:53 AM 57.9 °F 46.0 °F 65% 30.12 in 10.0 mi NNW 5.8 mph - N/A   Overcast
4:53 AM 57.0 °F 45.0 °F 64% 30.12 in 10.0 mi North 6.9 mph - N/A   Overcast
5:53 AM 55.0 °F 44.1 °F 67% 30.14 in 10.0 mi North 5.8 mph - N/A   Clear
6:53 AM 52.0 °F 43.0 °F 71% 30.16 in 10.0 mi North 3.5 mph - N/A   Clear
7:53 AM 53.1 °F 44.1 °F 71% 30.17 in 10.0 mi North 3.5 mph - N/A   Clear
8:53 AM 55.9 °F 43.0 °F 62% 30.17 in 10.0 mi NNE 5.8 mph - N/A   Clear
9:53 AM 59.0 °F 42.1 °F 53% 30.19 in 10.0 mi NE 6.9 mph - N/A   Clear
10:53 AM 63.0 °F 41.0 °F 45% 30.18 in 10.0 mi NE 5.8 mph - N/A   Clear
11:53 AM 64.9 °F 41.0 °F 42% 30.17 in 10.0 mi NNW 8.1 mph - N/A   Clear
12:53 PM 69.1 °F 39.9 °F 35% 30.15 in 10.0 mi Calm Calm - N/A   Clear
1:53 PM 71.1 °F 39.9 °F 32% 30.12 in 10.0 mi Variable 5.8 mph - N/A   Clear
2:53 PM 73.0 °F 37.9 °F 28% 30.09 in 10.0 mi North 8.1 mph - N/A   Clear
3:53 PM 73.0 °F 39.0 °F 29% 30.08 in 10.0 mi NW 8.1 mph - N/A   Clear
4:53 PM 73.9 °F 36.0 °F 25% 30.07 in 10.0 mi North 8.1 mph - N/A   Clear
5:53 PM 73.0 °F 36.0 °F 26% 30.07 in 10.0 mi NNW 5.8 mph - N/A   Clear
6:53 PM 70.0 °F 36.0 °F 29% 30.08 in 10.0 mi North 4.6 mph - N/A   Clear
7:53 PM 61.0 °F 43.0 °F 52% 30.08 in 10.0 mi Calm Calm - N/A   Clear
8:53 PM 54.0 °F 44.1 °F 69% 30.09 in 10.0 mi Calm Calm - N/A   Clear
9:53 PM 52.0 °F 42.1 °F 69% 30.10 in 10.0 mi Calm Calm - N/A   Clear
10:53 PM 48.9 °F 43.0 °F 80% 30.10 in 10.0 mi Calm Calm - N/A   Clear
11:53 PM 48.0 °F 43.0 °F 83% 30.10 in 10.0 mi Calm Calm - N/A   Clear